[[{"header":{"parameterUnit":"m.s-1","parameterCategory":1,"la1":30.2991,"la2":30.254,"lo1":-89.0895,"lo2":-89.0444,"dy":0.0017,"dx":0.0017,"nx":28,"ny":28,"refTime":"2025-11-13T03:00:00:Z","depth":0,"parameterNumber":2,"parameterNumberName":"U-component_of_WINDS"},"data":[0,0,0,0,0,0,0,0,0,0,0,0,0,0,0,0,0,0,0,0,0,0,0,0,0,0,0,0,0,0,0,0,0,0,0,0,0,0,0,0,0,0,0,0,0,0,0,0,0,0,0,0,0,0,0,0,0,0,-1.2545,-1.2544,0,-1.2482,-1.2481,-1.2481,-1.2439,-1.2439,-1.2439,-1.2439,-1.2372,-1.2371,-1.2369,0,0,0,0,0,0,0,0,0,0,0,0,0,-1.2629,-1.2628,-1.2545,-1.2544,-1.2543,-1.2482,-1.2481,-1.248,-1.2439,-1.2439,-1.2439,-1.2438,-1.2373,-1.2371,-1.2369,0,0,0,0,0,0,0,0,0,0,0,0,0,-1.2582,-1.2628,-1.2545,-1.2516,-1.2512,-1.2482,-1.2481,-1.248,-1.2439,-1.2439,-1.2439,-1.2438,-1.2374,-1.2371,-1.2369,-1.2363,0,0,-1.2362,-1.2361,0,0,0,0,0,0,0,0,-1.2585,-1.2579,-1.2521,-1.2518,-1.2514,-1.2468,-1.2487,-1.2441,-1.244,-1.2467,-1.2439,-1.2438,-1.2405,-1.24,-1.2389,-1.236,-1.2357,-1.2362,-1.2361,-1.236,-1.2359,0,0,0,0,0,0,0,-1.2588,-1.2582,-1.252,-1.252,-1.2516,-1.2505,-1.2498,-1.2478,-1.2439,-1.2465,-1.2461,-1.2455,-1.2403,-1.2391,-1.2387,-1.2356,-1.2362,-1.236,-1.2359,-1.2358,-1.2322,-1.2322,0,0,0,0,0,0,-1.2596,-1.2585,-1.2522,-1.2518,-1.2549,-1.2504,-1.2496,-1.2483,-1.2439,-1.2432,-1.2455,-1.2453,-1.2395,-1.239,-1.2384,-1.2376,-1.236,-1.2357,-1.2356,-1.2321,-1.2322,-1.2322,0,0,0,0,0,0,-1.2598,-1.2591,-1.2525,-1.255,-1.2541,-1.2503,-1.2489,-1.2482,-1.2471,-1.2432,-1.2424,-1.2451,-1.2395,-1.2388,-1.2369,-1.2373,-1.2356,-1.2354,-1.2321,-1.2321,-1.2322,-1.2358,0,0,0,0,0,0,-1.2601,-1.2592,-1.2589,-1.2551,-1.254,-1.2511,-1.2489,-1.2481,-1.2467,-1.2464,-1.2425,-1.2419,-1.2394,-1.2373,-1.2367,-1.2369,-1.2353,-1.232,-1.2321,-1.2322,-1.2356,-1.236,-1.2362,0,0,0,0,0,-1.2604,-1.2601,-1.2589,-1.2582,-1.2536,-1.2511,-1.2505,-1.2476,-1.2467,-1.2464,-1.244,-1.242,-1.2374,-1.2371,-1.2364,-1.2366,-1.232,-1.2321,-1.2322,-1.2355,-1.2359,-1.2362,0,0,0,0,0,0,-1.2639,-1.2595,-1.2582,-1.2566,-1.2543,-1.2504,-1.2499,-1.2481,-1.2459,-1.2457,-1.2423,-1.2414,-1.24,-1.2381,-1.2379,-1.2359,-1.2344,-1.2344,-1.2372,-1.2376,-1.2379,-1.2384,-1.2351,0,0,0,0,0,-1.2646,-1.2629,-1.2591,-1.2581,-1.257,-1.2537,-1.2525,-1.2506,-1.248,-1.2469,-1.2443,-1.2419,-1.2399,-1.2386,-1.2365,-1.2353,-1.2345,-1.2351,-1.2355,-1.2357,-1.2357,-1.2352,-1.2355,-1.2325,-1.2325,-1.2325,0,0,-1.2658,-1.2632,-1.2623,-1.2588,-1.2567,-1.2552,-1.2529,-1.2512,-1.2501,-1.2466,-1.2448,-1.2429,-1.2399,-1.2384,-1.2377,-1.2368,-1.2364,-1.2358,-1.2361,-1.2359,-1.2353,-1.2356,-1.2358,-1.2326,-1.2326,-1.2325,0,0,-1.2672,-1.265,-1.264,-1.2621,-1.2591,-1.2569,-1.2567,-1.2531,-1.2517,-1.2499,-1.2474,-1.2459,-1.2425,-1.2405,-1.2391,-1.2401,-1.2382,-1.2395,-1.2412,-1.2407,-1.2409,-1.2411,-1.2416,-1.2418,-1.2395,-1.2395,-1.2395,0,-1.2691,-1.2666,-1.2637,-1.2623,-1.2609,-1.2579,-1.257,-1.2552,-1.2516,-1.2507,-1.2499,-1.2457,-1.2434,-1.2416,-1.2419,-1.2408,-1.2405,-1.2399,-1.2411,-1.2413,-1.2414,-1.2418,-1.242,-1.2397,-1.2397,-1.2397,-1.2397,0,-1.2691,-1.2675,-1.2671,-1.2639,-1.2624,-1.2612,-1.2582,-1.2571,-1.2553,-1.2533,-1.2515,-1.2488,-1.2462,-1.2456,-1.2438,-1.2436,-1.2432,-1.2418,-1.2402,-1.2419,-1.2423,-1.2424,-1.24,-1.2399,-1.2399,-1.2398,0,0,-1.2724,-1.2679,-1.2678,-1.2664,-1.263,-1.2617,-1.2604,-1.258,-1.2572,-1.2549,-1.2538,-1.2511,-1.2499,-1.2482,-1.2462,-1.2458,-1.247,-1.2444,-1.2443,-1.2451,-1.2467,-1.2479,-1.2481,-1.2457,-1.2457,-1.2458,-1.247,0,-1.2734,-1.2711,-1.2686,-1.2671,-1.2657,-1.2629,-1.2619,-1.2597,-1.2578,-1.2563,-1.2541,-1.2524,-1.2507,-1.2498,-1.2492,-1.2469,-1.2473,-1.2468,-1.2448,-1.2447,-1.2457,-1.2483,-1.2494,-1.2507,-1.2471,-1.2472,-1.2472,0,-1.2742,-1.2723,-1.2707,-1.2677,-1.2669,-1.266,-1.2638,-1.2623,-1.2599,-1.2585,-1.2569,-1.2548,-1.2534,-1.2521,-1.2502,-1.25,-1.249,-1.2478,-1.2478,-1.2475,-1.2461,-1.2482,-1.2511,-1.2513,-1.2473,-1.2473,-1.2473,0,-1.277,-1.2739,-1.2726,-1.2715,-1.2679,-1.2674,-1.2658,-1.2633,-1.2621,-1.2601,-1.2593,-1.2572,-1.256,-1.2544,-1.2518,-1.2511,-1.2503,-1.2487,-1.2492,-1.2493,-1.2492,-1.2492,-1.2521,-1.2484,-1.2484,-1.2484,-1.2484,0,-1.2783,-1.2775,-1.2739,-1.2731,-1.2722,-1.2693,-1.2685,-1.2667,-1.2645,-1.2634,-1.2609,-1.2598,-1.2565,-1.2551,-1.2531,-1.252,-1.2514,-1.2503,-1.2498,-1.2506,-1.2508,-1.2499,-1.2498,-1.2485,-1.2485,-1.2485,-1.2485,0,-1.2812,-1.2787,-1.2772,-1.274,-1.2732,-1.2726,-1.2699,-1.2691,-1.2671,-1.2657,-1.2652,-1.2622,-1.2604,-1.2577,-1.2551,-1.2538,-1.2531,-1.2521,-1.2539,-1.2536,-1.2544,-1.2544,-1.2568,-1.2571,-1.2532,-1.2533,-1.2533,0,-1.2823,-1.2816,-1.2784,-1.2776,-1.2762,-1.2747,-1.2736,-1.2708,-1.2697,-1.267,-1.2665,-1.2646,-1.263,-1.2604,-1.2579,-1.256,-1.2551,-1.2561,-1.2547,-1.2556,-1.2552,-1.2553,-1.2553,-1.2564,-1.2564,-1.2565,-1.2565,0,-1.2845,-1.2834,-1.2818,-1.2799,-1.2786,-1.2769,-1.2751,-1.2745,-1.2714,-1.2703,-1.2686,-1.2673,-1.2648,-1.263,-1.2608,-1.2592,-1.2574,-1.257,-1.257,-1.2578,-1.2589,-1.2585,-1.2549,-1.2569,-1.2569,-1.2568,-1.2568,-1.2568,-1.2865,-1.2859,-1.2837,-1.2821,-1.2805,-1.2789,-1.2781,-1.2761,-1.2747,-1.2725,-1.271,-1.2694,-1.2671,-1.264,-1.2626,-1.2613,-1.2605,-1.2605,-1.2605,-1.2606,-1.261,-1.2591,-1.2609,-1.2609,-1.2609,-1.2608,-1.2608,0,-1.2887,-1.2872,-1.2858,-1.2834,-1.2823,-1.2807,-1.2787,-1.2778,-1.2765,-1.2746,-1.2731,-1.2713,-1.2696,-1.2671,-1.2652,-1.2647,-1.2639,-1.2643,-1.2644,-1.2641,-1.2617,-1.262,-1.2651,-1.2651,-1.2651,-1.2651,-1.2651,-1.2651,-1.2897,-1.2887,-1.2873,-1.2855,-1.2839,-1.2825,-1.2815,-1.2801,-1.2786,-1.2767,-1.2753,-1.2737,-1.2717,-1.2697,-1.2681,-1.2674,-1.2669,-1.2677,-1.2668,-1.2646,-1.2642,-1.2638,-1.264,-1.2676,-1.2676,-1.2692,-1.2692,-1.2692]},{"header":{"parameterUnit":"m.s-1","parameterCategory":1,"la1":30.2991,"la2":30.254,"lo1":-89.0895,"lo2":-89.0444,"dy":0.0017,"dx":0.0017,"nx":28,"ny":28,"refTime":"2025-11-13T03:00:00:Z","depth":0,"parameterNumber":3,"parameterNumberName":"V-component_of_WINDS"},"data":[0,0,0,0,0,0,0,0,0,0,0,0,0,0,0,0,0,0,0,0,0,0,0,0,0,0,0,0,0,0,0,0,0,0,0,0,0,0,0,0,0,0,0,0,0,0,0,0,0,0,0,0,0,0,0,0,0,0,-1.3642,-1.3643,0,-1.3665,-1.3666,-1.3666,-1.365,-1.3649,-1.3649,-1.3648,-1.3669,-1.367,-1.3671,0,0,0,0,0,0,0,0,0,0,0,0,0,-1.3582,-1.3583,-1.3642,-1.3643,-1.3643,-1.3665,-1.3666,-1.3666,-1.365,-1.3649,-1.3649,-1.3648,-1.3669,-1.367,-1.3671,0,0,0,0,0,0,0,0,0,0,0,0,0,-1.3607,-1.3583,-1.3642,-1.3638,-1.3638,-1.3665,-1.3666,-1.3666,-1.365,-1.3649,-1.3648,-1.3647,-1.3668,-1.367,-1.3672,-1.3704,0,0,-1.3677,-1.3678,0,0,0,0,0,0,0,0,-1.3605,-1.3609,-1.3638,-1.3638,-1.3638,-1.3654,-1.3652,-1.3679,-1.3651,-1.3645,-1.3648,-1.3647,-1.3665,-1.3667,-1.3673,-1.3705,-1.3706,-1.3677,-1.3679,-1.3679,-1.368,0,0,0,0,0,0,0,-1.3603,-1.3608,-1.3651,-1.3639,-1.3639,-1.3634,-1.3636,-1.3657,-1.3661,-1.3646,-1.3645,-1.3648,-1.3664,-1.3672,-1.3674,-1.3706,-1.3677,-1.3679,-1.368,-1.3681,-1.3766,-1.3767,0,0,0,0,0,0,-1.3603,-1.3606,-1.3651,-1.3652,-1.3619,-1.3636,-1.3638,-1.365,-1.366,-1.3661,-1.3649,-1.3647,-1.3669,-1.3672,-1.3674,-1.3713,-1.3679,-1.3681,-1.3682,-1.3765,-1.3766,-1.3768,0,0,0,0,0,0,-1.3601,-1.3607,-1.365,-1.3629,-1.3634,-1.3638,-1.3651,-1.3651,-1.3658,-1.3663,-1.3663,-1.3656,-1.3668,-1.3672,-1.3697,-1.3714,-1.3682,-1.3683,-1.3764,-1.3765,-1.3767,-1.3792,0,0,0,0,0,0,-1.36,-1.3606,-1.3619,-1.3629,-1.3635,-1.3673,-1.3652,-1.3652,-1.3662,-1.366,-1.3669,-1.367,-1.3668,-1.3694,-1.3699,-1.3716,-1.3685,-1.3762,-1.3764,-1.3766,-1.379,-1.3794,-1.3798,0,0,0,0,0,-1.3597,-1.3625,-1.362,-1.3626,-1.3652,-1.3674,-1.3677,-1.3675,-1.3663,-1.3676,-1.3679,-1.3669,-1.3711,-1.3697,-1.3702,-1.372,-1.3761,-1.3764,-1.3766,-1.3788,-1.3793,-1.3798,0,0,0,0,0,0,-1.3615,-1.3626,-1.3621,-1.3652,-1.3663,-1.3671,-1.3687,-1.3681,-1.3694,-1.3692,-1.3688,-1.369,-1.3717,-1.3721,-1.3705,-1.3752,-1.3734,-1.3738,-1.3749,-1.3754,-1.3758,-1.3757,-1.3686,0,0,0,0,0,-1.3623,-1.3641,-1.3649,-1.3676,-1.3681,-1.3684,-1.3693,-1.3691,-1.3701,-1.3705,-1.3709,-1.3719,-1.3734,-1.3744,-1.3758,-1.379,-1.3792,-1.3804,-1.3809,-1.3812,-1.3816,-1.3833,-1.3839,-1.3776,-1.3776,-1.3776,0,0,-1.3639,-1.3647,-1.3659,-1.368,-1.3687,-1.3706,-1.3687,-1.3707,-1.372,-1.3707,-1.3732,-1.3736,-1.3746,-1.3775,-1.3787,-1.3779,-1.3833,-1.3816,-1.3818,-1.382,-1.3836,-1.3842,-1.3847,-1.3778,-1.3778,-1.3778,0,0,-1.3678,-1.3686,-1.3709,-1.3717,-1.373,-1.3731,-1.3737,-1.3746,-1.3749,-1.3774,-1.3764,-1.3779,-1.3806,-1.3813,-1.3821,-1.3862,-1.3854,-1.3867,-1.389,-1.3907,-1.3911,-1.3916,-1.3931,-1.3937,-1.387,-1.387,-1.387,0,-1.3696,-1.3724,-1.3722,-1.3743,-1.3752,-1.3742,-1.3766,-1.3773,-1.3789,-1.3796,-1.3786,-1.3819,-1.3825,-1.3855,-1.3866,-1.3872,-1.3878,-1.3866,-1.3911,-1.3915,-1.3919,-1.3934,-1.394,-1.3872,-1.3871,-1.3871,-1.3871,0,-1.3746,-1.3765,-1.3783,-1.38,-1.3811,-1.3833,-1.3833,-1.3845,-1.3841,-1.3843,-1.3869,-1.3875,-1.3891,-1.3898,-1.3894,-1.3928,-1.3922,-1.3912,-1.3894,-1.3927,-1.394,-1.3946,-1.3874,-1.3873,-1.3873,-1.3872,0,0,-1.3797,-1.3812,-1.3819,-1.3827,-1.3839,-1.3854,-1.3875,-1.3891,-1.3901,-1.3912,-1.393,-1.3952,-1.3943,-1.3951,-1.3948,-1.3963,-1.3996,-1.395,-1.3951,-1.3959,-1.4034,-1.4042,-1.4049,-1.399,-1.3991,-1.3992,-1.4033,0,-1.3836,-1.3875,-1.3874,-1.3909,-1.3927,-1.3918,-1.3936,-1.3946,-1.3948,-1.3963,-1.3965,-1.3981,-1.3967,-1.3972,-1.3986,-1.3989,-1.4011,-1.3986,-1.4006,-1.4007,-1.4005,-1.4056,-1.4065,-1.4103,-1.4038,-1.4039,-1.404,0,-1.3888,-1.3902,-1.394,-1.3951,-1.3958,-1.3975,-1.399,-1.4004,-1.4014,-1.4015,-1.4024,-1.4019,-1.404,-1.4021,-1.4049,-1.4032,-1.404,-1.4043,-1.4044,-1.4047,-1.4026,-1.406,-1.4115,-1.4121,-1.4048,-1.4047,-1.4047,0,-1.3922,-1.3951,-1.3977,-1.3984,-1.3996,-1.4008,-1.4014,-1.4023,-1.4033,-1.4045,-1.4052,-1.4066,-1.4074,-1.4085,-1.4083,-1.407,-1.4113,-1.4094,-1.4113,-1.4114,-1.4123,-1.4123,-1.4181,-1.4128,-1.4127,-1.4127,-1.4127,0,-1.3968,-1.3991,-1.3993,-1.4009,-1.4035,-1.4033,-1.4058,-1.4062,-1.407,-1.4087,-1.4079,-1.4094,-1.4091,-1.4105,-1.4104,-1.4128,-1.4131,-1.4132,-1.4132,-1.4133,-1.4133,-1.4139,-1.4137,-1.4129,-1.4129,-1.4128,-1.4128,0,-1.401,-1.4012,-1.4041,-1.4051,-1.4054,-1.4072,-1.408,-1.4095,-1.4097,-1.4118,-1.4122,-1.4125,-1.4142,-1.4141,-1.416,-1.4159,-1.4189,-1.4185,-1.4186,-1.4185,-1.4206,-1.4204,-1.427,-1.4279,-1.4219,-1.422,-1.422,0,-1.4039,-1.4058,-1.407,-1.4081,-1.4087,-1.4105,-1.4115,-1.4113,-1.4124,-1.4137,-1.4151,-1.4167,-1.4181,-1.4208,-1.4211,-1.4226,-1.4222,-1.4245,-1.4225,-1.4226,-1.4224,-1.4223,-1.4225,-1.4249,-1.4249,-1.425,-1.425,0,-1.4091,-1.4091,-1.4107,-1.4124,-1.4137,-1.4149,-1.4161,-1.417,-1.4169,-1.4181,-1.42,-1.421,-1.423,-1.4247,-1.4261,-1.4265,-1.4258,-1.4257,-1.4262,-1.4265,-1.4265,-1.4266,-1.4198,-1.4255,-1.4255,-1.4255,-1.4254,-1.4254,-1.4128,-1.4144,-1.4156,-1.4173,-1.4182,-1.4193,-1.4208,-1.4212,-1.4227,-1.4244,-1.4242,-1.4262,-1.4271,-1.4289,-1.4295,-1.431,-1.4303,-1.431,-1.4312,-1.4315,-1.4317,-1.4262,-1.4313,-1.4313,-1.4313,-1.4312,-1.4312,0,-1.418,-1.4187,-1.4203,-1.422,-1.4235,-1.4227,-1.4239,-1.4251,-1.427,-1.4279,-1.4293,-1.4313,-1.4329,-1.4334,-1.4349,-1.436,-1.4357,-1.4364,-1.4364,-1.4365,-1.4323,-1.4317,-1.4367,-1.4367,-1.4367,-1.4367,-1.4367,-1.4367,-1.4209,-1.4235,-1.4237,-1.4267,-1.4274,-1.4295,-1.4302,-1.4312,-1.432,-1.4344,-1.4358,-1.436,-1.4368,-1.4383,-1.4398,-1.4398,-1.4404,-1.4413,-1.4413,-1.4373,-1.4368,-1.4363,-1.4357,-1.4414,-1.4414,-1.4453,-1.4454,-1.4454]}]]